Station data:
(033) Karl Schwarzschild Observatory, Tautenburg (N50.98019 E11.71124)  Germany.
      Observer B. Stecklum.  1.34-m f/4 Schmidt + CCD.
(568) Mauna Kea (N19.8262 W155.4722)  US/Hawaii.   Observers D. C. Jewitt, S.
    S. Sheppard, J. Kleyna.  Measurer S. S. Sheppard.  8.3-m Subaru reflector +
    CCD.
(958) Observatoire de Dax (N43.69337 W1.03039)  France.
(970) Chelmsford (N51.7448 E0.4954)  UK.   Observer N. James.  0.28-m f/10
    Schmidt-Cassegrain + CCD.
(C95) SATINO Remote Observatory, Haute Provence (N43.93211 E5.71239)  France.
     Observer J. Jahn.  0.60-m f/3.2 Newton + CCD.
(G96) Mt. Lemmon Survey (N32.44287 W110.78872)  US/Arizona.   Observers E. J.
    Christensen, A. R. Gibbs, A. D. Grauer, R. E. Hill, J. A. Johnson, R. A.
    Kowalski, S. M. Larson, F. C. Shelly.  1.5-m reflector + CCD.
(H15) ISON-NM Observatory, Mayhill (N32.90336 W105.52844)  US/New Mexico.
(J95) Great Shefford (N51.47502 W1.44700)  UK.   Observer P. Birtwhistle.
    0.30-m f/6.3 Schmidt-Cassegrain + CCD.

Orbital elements:  Gaia = 2013-074A = NORAD 39479
   Perihelion 2014 Jan 14.871413 +/- 1.72 TT = 20:54:50 (JD 2456672.371413)
Epoch 2014 Jan 27.0 TT = JDT 2456684.5   Earth MOID: 0.0090   Find_Orb
M  11.37600 +/- 1.6
n   0.93794974 +/- 0.000805         Peri.  335.28737 +/- 19
a   1.03359326 +/- 0.000592         Node   139.05613 +/- 0.33
e   0.0394692 +/- 0.000608          Incl.    0.12507 +/- 0.0044
P   1.05/383.81d           H 30.0   G  0.15   U  8.0
q 0.99279809 +/- 7.31e-5    Q 1.07438843 +/- 0.00125
10 of 103 observations 2014 Jan. 21-27; mean residual 0".273.

Orbital elements (shortly after launch):  Gaia = 2013-74A = NORAD 39479
   Perigee 2013 Dec 19.405940 +/- 9.61e-5 TT =  9:44:33 (JD 2456645.905940)
Epoch 2013 Dec 20.0 TT = JDT 2456646.5                        Find_Orb
M   5.56954 +/- 0.030
n   9.37539492 +/- 0.0477           Peri.  265.57147 +/- 0.008
a480777.119 +/- 1630                Node    14.78673 +/- 0.007
e   0.9859855 +/- 4.45e-5           Incl.   15.00163 +/- 0.00029
P  38.40d                  H 24.5   G  0.15   U 10.7
q 6737.83489 +/- 1.5    Q 954816.404 +/- 2861
36 observations 2013 Dec. 19-20 (12.8 hr); mean residual 0".161.

Orbital elements:  Gaia = 2013-74A = NORAD 39479 
   Perigee 2013 Dec 19.411428 +/- 0.000416 TT =  9:52:27 (JD 2456645.911428)
Epoch 2013 Dec 20.0 TT = JDT 2456646.5                        Find_Orb
M   4.86833 +/- 0.006
n   8.27142656 +/- 0.0136           Peri.  263.02116 +/- 0.010
a522656.745 +/- 574                 Node    18.25875 +/- 0.006
e   0.9862212 +/- 7.15e-6           Incl.   15.38362 +/- 0.0006
P  43.52d                  H 30.8   G  0.15   U  9.9
q 7201.57763 +/- 5.3    Q 0.00693934 +/- 7.31e-6
44 of 83 observations 2013 Dec. 20-22; mean residual 0".464.

Residuals in arcseconds:
131219 J95( 18d+ 236'+)   131220 H15( 18d+ 256'+)   131221 958( 17d+ 199'+)
131219 J95( 18d+ 236'+)   131220 958( 19d+ 237'+)   131222 J95( 17d+ 194'+)
131219 J95( 18d+ 236'+)   131220 958( 19d+ 237'+)   131222 J95( 17d+ 194'+)
131219 J95( 18d+ 236'+)   131220 958( 19d+ 237'+)   131222 J95( 17d+ 194'+)
131219 J95( 18d+ 236'+)   131220 958( 19d+ 237'+)   131222 J95( 17d+ 194'+)
131219 J95( 18d+ 236'+)   131220 958( 19d+ 237'+)   131222 970(927'+ 168'+)
131219 J95( 18d+ 236'+)   131220 958( 19d+ 237'+)   131222 970(926'+ 168'+)
131220 970( 18d+ 243'+)   131220 958( 19d+ 237'+)   131222 970(925'+ 168'+)
131220 970( 18d+ 244'+)   131220 958( 19d+ 237'+)   131222 970(924'+ 167'+)
131220 970( 18d+ 244'+)   131220 958( 19d+ 237'+)   131222 970(923'+ 167'+)
131220 970( 18d+ 245'+)   131220 958( 19d+ 237'+)   131222 970(922'+ 167'+)
131220 H15( 19d+ 254'+)   131220 958( 19d+ 237'+)   131222 970(922'+ 167'+)
131220 H15( 19d+ 254'+)   131220 958( 19d+ 237'+)   131222 970(921'+ 167'+)
131220 H15( 19d+ 255'+)   131220 958( 19d+ 237'+)   131225 568(697'+ 6847+)
131220 H15( 19d+ 255'+)   131220 958( 19d+ 237'+)   131225 568(697'+ 6843+)
131220 H15( 19d+ 255'+)   131220 958( 19d+ 237'+)   131225 568(696'+ 6841+)
131220 H15( 19d+ 260'+)   131220 958( 19d+ 237'+)   131225 568(696'+ 6840+)
131220 H15( 19d+ 262'+)   131220 958( 19d+ 237'+)   131225 568(696'+ 6840+)
131220 H15( 19d+ 264'+)   131220 958( 19d+ 237'+)   131228 C95(462'+ 3884+)
131220 H15( 19d+ 265'+)   131220 958( 19d+ 237'+)   131228 C95(461'+ 3876+)
131220 H15( 19d+ 266'+)   131220 958( 19d+ 237'+)   140111 568( 375+ 37.3+)
131220 H15( 19d+ 267'+)   131220 958( 19d+ 237'+)   140111 568( 374+ 37.3+)
131220 H15( 19d+ 267'+)   131221 958( 17d+ 201'+)   140111 568( 373+ 37.2+)
131220 H15( 19d+ 268'+)   131221 958( 17d+ 200'+)   140121 G96 .078+ .057-
131220 H15( 19d+ 268'+)   131221 958( 17d+ 200'+)   140121 G96 .052- .065-
131220 H15( 19d+ 268'+)   131221 958( 17d+ 200'+)   140121 G96 .137+ .065-
131220 H15( 19d+ 267'+)   131221 970( 17d+ 199'+)   140121 G96 .009- .056+
131220 H15( 19d+ 266'+)   131221 970( 17d+ 199'+)   140121 G96 .263+ .040+
131220 H15( 19d+ 266'+)   131221 958( 17d+ 200'+)   140121 G96 .417- .087+
131220 H15( 19d+ 265'+)   131221 958( 17d+ 200'+)   140127 033 .205- .590+
131220 H15( 19d+ 264'+)   131221 970( 17d+ 198'+)   140127 033 .154- .441+
131220 H15( 19d+ 262'+)   131221 958( 17d+ 200'+)   140127 033 .198+ .517-
131220 H15( 19d+ 261'+)   131221 958( 17d+ 200'+)   140127 033 .160+ .510-
131220 H15( 18d+ 259'+)   131221 958( 17d+ 200'+)
131220 H15( 18d+ 258'+)   131221 958( 17d+ 199'+)

